Weather History for Kokomo, IN

Change the Weather History Date:

Monday, December 3, 2012

  Actual Average (KGUS) Record (KGUS)
Temperature  
Mean Temperature 63 °F -  
Max Temperature 66 °F 41 °F 66 °F (2012)
Min Temperature 60 °F 29 °F 10 °F (2002)
Degree Days  
Heating Degree Days 2    
Growing Degree Days 13 (Base 50)    
Moisture  
Dew Point 57 °F    
Average Humidity 81    
Maximum Humidity 100    
Minimum Humidity 73    
Precipitation  
Precipitation 0.00 in - - ()
Sea Level Pressure  
Sea Level Pressure 29.98 in    
Wind  
Wind Speed 15 mph (SSW)    
Max Wind Speed 20 mph    
Max Gust Speed 26 mph    
Visibility 9 miles    
Events      
Averages and records for this station are not official NWS values.
T = Trace of Precipitation, MM = Missing Value Source: NWS Daily Summary

Daily Weather History Graph

Daily Weather History Graph

Search for Another Location

Airport:

Trip Planner

Search our weather history database for the weather conditions in past years. The results will help you decide how hot, cold, wet, or windy it might be!

Date:

Astronomy

Dec. 03, 2012 Rise Set
Actual Time 6:50 AM CST 4:17 PM CST
Civil Twilight 6:20 AM CST 4:47 PM CST
Nautical Twilight 5:46 AM CST 5:21 PM CST
Astronomical Twilight 5:13 AM CST 5:54 PM CST
Moon 9:04 PM CST (12/3) 10:13 AM CST (12/3)
Length of Visible Light 10h 27m
Length of Day
9h 26m
Waning Gibbous, 78% of the Moon is Illuminated
Dec 3
Waning Gibbous
Dec 6
Last Quarter
Dec 13
New
Dec 19
First Quarter
Dec 28
Full

Hourly Weather History & Observations

Time (CST) Temp. Dew Point Humidity Pressure Visibility Wind Dir Wind Speed Gust Speed Precip Events Conditions
9:15 AM 60.8 °F 59.0 °F 94% 30.05 in 2.5 mi South 10.4 mph - N/A   Overcast
9:35 AM 60.8 °F 60.8 °F 100% 30.05 in 2.5 mi South 13.8 mph - N/A   Overcast
9:55 AM 60.8 °F 59.0 °F 94% 30.04 in 3.0 mi South 11.5 mph - N/A   Overcast
10:15 AM 60.8 °F 60.8 °F 100% 30.04 in 3.0 mi South 13.8 mph - N/A   Overcast
12:35 PM 62.6 °F 60.8 °F 94% 29.99 in 7.0 mi SSW 13.8 mph 19.6 mph N/A   Overcast
12:55 PM 64.4 °F 60.8 °F 88% 29.98 in 10.0 mi SSW 17.3 mph - N/A   Overcast
3:15 PM - - N/A% 29.96 in - SSW 17.3 mph - N/A   Unknown
3:35 PM 66.2 °F 60.8 °F 83% 29.96 in 10.0 mi SSW 19.6 mph 26.5 mph N/A   Clear
3:55 PM 66.2 °F 59.0 °F 78% 29.96 in 10.0 mi SSW 17.3 mph - N/A   Clear
4:15 PM 64.4 °F 57.2 °F 77% 29.96 in 10.0 mi SSW 16.1 mph 21.9 mph N/A   Clear
4:35 PM 64.4 °F 57.2 °F 77% 29.96 in 10.0 mi South 15.0 mph 23.0 mph N/A   Clear
4:55 PM 64.4 °F 57.2 °F 77% 29.96 in 10.0 mi South 16.1 mph - N/A   Clear
5:15 PM 64.4 °F 57.2 °F 77% 29.96 in 10.0 mi South 15.0 mph - N/A   Clear
5:35 PM 62.6 °F 55.4 °F 77% 29.95 in 10.0 mi South 17.3 mph - N/A   Clear
5:55 PM 62.6 °F 55.4 °F 77% 29.95 in 10.0 mi South 15.0 mph - N/A   Clear
6:15 PM 64.4 °F 55.4 °F 73% 29.96 in 10.0 mi SSW 17.3 mph 24.2 mph N/A   Clear
6:35 PM 62.6 °F 55.4 °F 77% 29.96 in 10.0 mi South 17.3 mph - N/A   Clear
6:55 PM 62.6 °F 55.4 °F 77% 29.95 in 10.0 mi South 16.1 mph - N/A   Clear
7:15 PM 62.6 °F 55.4 °F 77% 29.97 in 10.0 mi SSW 15.0 mph - N/A   Clear
7:35 PM 62.6 °F 55.4 °F 77% 29.97 in 10.0 mi SSW 13.8 mph - N/A   Clear
7:55 PM 62.6 °F 55.4 °F 77% 29.98 in 10.0 mi SSW 16.1 mph 21.9 mph N/A   Clear
8:15 PM 62.6 °F 55.4 °F 77% 29.98 in 10.0 mi SW 19.6 mph 24.2 mph N/A   Scattered Clouds
8:35 PM 62.6 °F 55.4 °F 77% 29.98 in 10.0 mi SW 17.3 mph 24.2 mph N/A   Mostly Cloudy
8:55 PM 62.6 °F 55.4 °F 77% 29.98 in 10.0 mi SW 17.3 mph - N/A   Partly Cloudy
9:15 PM 62.6 °F 55.4 °F 77% 29.98 in 10.0 mi SSW 16.1 mph 20.7 mph N/A   Partly Cloudy
9:35 PM 60.8 °F 55.4 °F 82% 29.98 in 10.0 mi SSW 16.1 mph - N/A   Partly Cloudy
9:55 PM 60.8 °F 55.4 °F 82% 29.97 in 10.0 mi SSW 17.3 mph - N/A   Clear
10:15 PM 60.8 °F 55.4 °F 82% 29.97 in 10.0 mi SSW 17.3 mph 23.0 mph N/A   Clear
10:35 PM 60.8 °F 55.4 °F 82% 29.98 in 10.0 mi SSW 17.3 mph - N/A   Clear
10:55 PM 60.8 °F 55.4 °F 82% 29.98 in 10.0 mi SW 17.3 mph 23.0 mph N/A   Scattered Clouds
11:15 PM 62.6 °F 55.4 °F 77% 29.98 in 10.0 mi SSW 16.1 mph 23.0 mph N/A   Overcast
11:35 PM 60.8 °F 53.6 °F 77% 29.98 in 10.0 mi SSW 18.4 mph - N/A   Mostly Cloudy
11:55 PM 60.8 °F 53.6 °F 77% 29.97 in 10.0 mi SW 17.3 mph 23.0 mph N/A   Mostly Cloudy